Powrót do katalogu

STARLINK-36558

AktywnyŁącznośćVLEO
NORAD 67499·PAYLOAD·🇺🇸 United States

Wystrzelony Jan 18, 2026 z Cape Canaveral Space Force Station

Loading…

Następne Przeloty (najbliższe 24 godziny)

TLE

ŚwieżeSource: CelesTrak SupGP

Epoka: Sep 14, 2026, 14:25 UTC

1 67499C 26012G   26257.60118056  .00012825  00000+0  46468-3 0  2570
2 67499  43.0010 327.6310 0001231 276.7970  39.9965 15.27561316    11

Śledź STARLINK-36558 w czasie rzeczywistym z AllMySat

Download on the App Store